SAS335 LGSR-ESSA

Flight info

Callsign SAS335
Flight time 3h 31m
Altitude 38000
Route MADEX DCT KOROS UN133 ATFIR DCT OGOTA N133 LOMOS DCT OLMIP DCT KEKED/N0462F400 DCT GOSAK N133 PENOR DCT ARMOD Z228 NILUG
Aircraft B736/M-SDE2E3FGHIRWXY/LB1

Departure

Time 2026-04-22 09:10
Airport Santorini International Airport (LGSR)

Arrival

Time 2026-04-22 12:41
Airport Stockholm-Arlanda Airport (ESSA)
Time Latitude Longitude Altitude Speed Heading
2026-04-22 08:56 36.40139 25.47484 108 ft 0 kts 255°
2026-04-22 08:59 36.40139 25.47485 108 ft 1 kts 255°
2026-04-22 08:59 36.40142 25.47505 108 ft 2 kts 231°
2026-04-22 09:00 36.40150 25.47509 108 ft 0 kts 155°
2026-04-22 09:05 36.40143 25.47513 107 ft 4 kts 152°
2026-04-22 09:05 36.40130 25.47578 107 ft 10 kts 71°
2026-04-22 09:06 36.40118 25.47652 106 ft 10 kts 146°
2026-04-22 09:06 36.40043 25.47690 103 ft 14 kts 159°
2026-04-22 09:06 36.39938 25.47739 99 ft 18 kts 159°
2026-04-22 09:06 36.39809 25.47800 94 ft 22 kts 159°
2026-04-22 09:07 36.39661 25.47870 89 ft 24 kts 159°
2026-04-22 09:07 36.39492 25.47949 84 ft 26 kts 160°
2026-04-22 09:07 36.39328 25.48026 73 ft 24 kts 159°
2026-04-22 09:07 36.39178 25.48096 67 ft 23 kts 159°
2026-04-22 09:08 36.39073 25.48146 66 ft 10 kts 157°
2026-04-22 09:08 36.39014 25.48188 61 ft 10 kts 121°
2026-04-22 09:08 36.39024 25.48283 60 ft 13 kts 68°
2026-04-22 09:08 36.39069 25.48313 61 ft 4 kts 339°
2026-04-22 09:09 36.39074 25.48310 58 ft 0 kts 339°
2026-04-22 09:09 36.39217 25.48242 67 ft 60 kts 338°
2026-04-22 09:10 36.39852 25.47945 95 ft 133 kts 339°
2026-04-22 09:10 36.40866 25.47477 388 ft 168 kts 334°
2026-04-22 09:10 36.41964 25.47050 1401 ft 165 kts 339°
2026-04-22 09:10 36.43074 25.46798 2385 ft 160 kts 344°
2026-04-22 09:11 36.44248 25.46510 2828 ft 188 kts 343°
2026-04-22 09:11 36.45631 25.46137 3128 ft 218 kts 343°
2026-04-22 09:11 36.47210 25.45685 3367 ft 247 kts 343°
2026-04-22 09:11 36.48957 25.45163 3895 ft 265 kts 343°
2026-04-22 09:12 36.50745 25.44612 4956 ft 264 kts 342°
2026-04-22 09:12 36.52534 25.44043 5924 ft 268 kts 342°
2026-04-22 09:12 36.54360 25.43449 6809 ft 273 kts 342°
2026-04-22 09:12 36.56201 25.42844 7763 ft 275 kts 342°
2026-04-22 09:13 36.58056 25.42227 8703 ft 278 kts 341°
2026-04-22 09:13 36.59936 25.41599 9600 ft 281 kts 341°
2026-04-22 09:13 36.61838 25.40961 10425 ft 288 kts 341°
2026-04-22 09:13 36.63852 25.40281 10683 ft 314 kts 341°
2026-04-22 09:14 36.66051 25.39567 10884 ft 340 kts 345°
2026-04-22 09:14 36.68441 25.39017 11342 ft 355 kts 348°
2026-04-22 09:14 36.70902 25.38562 12118 ft 359 kts 348°
2026-04-22 09:14 36.73384 25.38131 12994 ft 361 kts 348°
2026-04-22 09:15 36.75882 25.37696 13820 ft 364 kts 348°
2026-04-22 09:15 36.78398 25.37247 14511 ft 367 kts 348°
2026-04-22 09:15 36.80930 25.36785 15220 ft 370 kts 348°
2026-04-22 09:15 36.83483 25.36310 15929 ft 372 kts 347°
2026-04-22 09:16 36.86057 25.35825 16611 ft 375 kts 347°
2026-04-22 09:16 36.88652 25.35332 17281 ft 379 kts 347°
2026-04-22 09:16 36.91268 25.34832 17969 ft 382 kts 347°
2026-04-22 09:16 36.93871 25.34334 18589 ft 385 kts 347°
2026-04-22 09:17 36.96530 25.33823 19158 ft 388 kts 347°
2026-04-22 09:17 36.99213 25.33307 19734 ft 392 kts 347°
2026-04-22 09:17 37.01955 25.32780 20313 ft 395 kts 347°
2026-04-22 09:17 37.04643 25.32263 20883 ft 398 kts 347°
2026-04-22 09:18 37.07389 25.31733 21431 ft 401 kts 347°
2026-04-22 09:18 37.10156 25.31200 21986 ft 404 kts 347°
2026-04-22 09:18 37.12949 25.30661 22530 ft 407 kts 347°
2026-04-22 09:18 37.15760 25.30118 23064 ft 411 kts 347°
2026-04-22 09:19 37.18599 25.29570 23584 ft 414 kts 347°
2026-04-22 09:19 37.21458 25.29017 24028 ft 417 kts 347°
2026-04-22 09:19 37.24334 25.28461 24514 ft 419 kts 346°
2026-04-22 09:19 37.27219 25.27903 24984 ft 421 kts 346°
2026-04-22 09:20 37.30124 25.27341 25435 ft 423 kts 346°
2026-04-22 09:20 37.33042 25.26775 25874 ft 426 kts 346°
2026-04-22 09:20 37.35977 25.26205 26306 ft 428 kts 346°
2026-04-22 09:20 37.38929 25.25632 26740 ft 430 kts 346°
2026-04-22 09:21 37.41895 25.25055 27152 ft 433 kts 346°
2026-04-22 09:21 37.44879 25.24475 27558 ft 435 kts 346°
2026-04-22 09:21 37.47882 25.23890 27956 ft 437 kts 346°
2026-04-22 09:21 37.50894 25.23303 28342 ft 439 kts 346°
2026-04-22 09:22 37.53924 25.22713 28716 ft 442 kts 346°
2026-04-22 09:22 37.56964 25.22120 29054 ft 443 kts 346°
2026-04-22 09:22 37.60019 25.21523 29426 ft 445 kts 346°
2026-04-22 09:22 37.63076 25.20926 29949 ft 443 kts 346°
2026-04-22 09:23 37.66111 25.20335 30467 ft 440 kts 346°
2026-04-22 09:23 37.69132 25.19746 30922 ft 438 kts 346°
2026-04-22 09:23 37.72145 25.19156 31318 ft 438 kts 345°
2026-04-22 09:23 37.75154 25.18566 31704 ft 437 kts 345°
2026-04-22 09:24 37.78155 25.17977 32134 ft 436 kts 345°
2026-04-22 09:24 37.81147 25.17389 32565 ft 434 kts 345°
2026-04-22 09:24 37.84131 25.16802 32955 ft 433 kts 345°
2026-04-22 09:24 37.87103 25.16217 33340 ft 432 kts 345°
2026-04-22 09:25 37.90063 25.15635 33731 ft 430 kts 345°
2026-04-22 09:25 37.93016 25.15053 34089 ft 429 kts 345°
2026-04-22 09:25 37.95965 25.14470 34349 ft 429 kts 345°
2026-04-22 09:25 37.98918 25.13886 34562 ft 430 kts 345°
2026-04-22 09:26 38.01879 25.13300 34800 ft 431 kts 345°
2026-04-22 09:26 38.04842 25.12714 35060 ft 430 kts 345°
2026-04-22 09:26 38.07803 25.12128 35296 ft 431 kts 345°
2026-04-22 09:26 38.10726 25.11548 35509 ft 431 kts 345°
2026-04-22 09:27 38.13693 25.10960 35750 ft 431 kts 345°
2026-04-22 09:27 38.16657 25.10373 35973 ft 432 kts 345°
2026-04-22 09:27 38.19632 25.09782 36178 ft 432 kts 345°
2026-04-22 09:27 38.22599 25.09192 36394 ft 433 kts 345°
2026-04-22 09:28 38.25577 25.08600 36600 ft 433 kts 345°
2026-04-22 09:28 38.28553 25.08007 36813 ft 433 kts 345°
2026-04-22 09:28 38.31529 25.07415 37015 ft 433 kts 345°
2026-04-22 09:28 38.34514 25.06819 37212 ft 434 kts 345°
2026-04-22 09:29 38.37496 25.06224 37394 ft 434 kts 345°
2026-04-22 09:29 38.40486 25.05627 37597 ft 434 kts 345°
2026-04-22 09:29 38.43473 25.05030 37762 ft 435 kts 345°
2026-04-22 09:29 38.46466 25.04431 37927 ft 436 kts 345°
2026-04-22 09:30 38.49460 25.03832 37942 ft 436 kts 345°
2026-04-22 09:30 38.55447 25.02632 37970 ft 435 kts 345°
2026-04-22 09:31 38.61428 25.01432 37977 ft 435 kts 345°
2026-04-22 09:31 38.67400 25.00230 37967 ft 435 kts 345°
2026-04-22 09:32 38.73374 24.99026 37970 ft 434 kts 345°
2026-04-22 09:32 38.79348 24.97820 37976 ft 434 kts 345°
2026-04-22 09:33 38.85318 24.96613 37974 ft 434 kts 345°
2026-04-22 09:33 38.91291 24.95403 37978 ft 434 kts 345°
2026-04-22 09:34 38.97261 24.94192 37983 ft 434 kts 345°
2026-04-22 09:34 39.03234 24.92978 37981 ft 435 kts 345°
2026-04-22 09:35 39.11994 24.90480 37978 ft 423 kts 330°
2026-04-22 09:35 39.17250 24.87215 37988 ft 421 kts 328°
2026-04-22 09:36 39.22501 24.83882 37991 ft 421 kts 329°
2026-04-22 09:36 39.27769 24.80581 37991 ft 421 kts 329°
2026-04-22 09:37 39.33038 24.77298 37998 ft 420 kts 329°
2026-04-22 09:37 39.38304 24.74016 38000 ft 420 kts 329°
2026-04-22 09:38 39.42679 24.71284 38003 ft 420 kts 329°
2026-04-22 09:38 39.47938 24.67994 38007 ft 420 kts 329°
2026-04-22 09:39 39.53193 24.64703 38005 ft 420 kts 329°
2026-04-22 09:39 39.58483 24.61388 38011 ft 419 kts 329°
2026-04-22 09:40 39.63695 24.58115 38015 ft 419 kts 329°
2026-04-22 09:40 39.68939 24.54816 38011 ft 419 kts 328°
2026-04-22 09:41 39.74181 24.51512 38015 ft 419 kts 328°
2026-04-22 09:41 39.79421 24.48204 38019 ft 419 kts 328°
2026-04-22 09:42 39.84667 24.44886 38020 ft 419 kts 328°
2026-04-22 09:42 39.89908 24.41566 38024 ft 419 kts 328°
2026-04-22 09:43 39.95156 24.38236 38028 ft 419 kts 328°
2026-04-22 09:43 40.00407 24.34898 38034 ft 420 kts 328°
2026-04-22 09:44 40.05659 24.31554 38040 ft 420 kts 328°
2026-04-22 09:44 40.10922 24.28197 38027 ft 421 kts 328°
2026-04-22 09:45 40.16156 24.24852 38023 ft 422 kts 328°
2026-04-22 09:45 40.21423 24.21482 38048 ft 422 kts 328°
2026-04-22 09:46 40.26731 24.18078 38047 ft 422 kts 328°
2026-04-22 09:46 40.32004 24.14691 38038 ft 422 kts 328°
2026-04-22 09:47 40.37240 24.11322 38045 ft 422 kts 328°
2026-04-22 09:47 40.42505 24.07928 38044 ft 421 kts 328°
2026-04-22 09:48 40.47759 24.04536 38046 ft 420 kts 328°
2026-04-22 09:48 40.53001 24.01144 38044 ft 419 kts 328°
2026-04-22 09:49 40.58241 23.97786 38044 ft 420 kts 331°
2026-04-22 09:49 40.63927 23.95665 38066 ft 430 kts 343°
2026-04-22 09:50 40.69835 23.94314 38055 ft 432 kts 343°
2026-04-22 09:50 40.75753 23.92961 38060 ft 430 kts 343°
2026-04-22 09:51 40.81650 23.91572 38061 ft 430 kts 343°
2026-04-22 09:51 40.87528 23.90166 38046 ft 430 kts 343°
2026-04-22 09:52 40.93410 23.88753 38065 ft 429 kts 343°
2026-04-22 09:52 40.99294 23.87338 38053 ft 430 kts 342°
2026-04-22 09:53 41.05173 23.85923 38065 ft 430 kts 343°
2026-04-22 09:53 41.11021 23.84513 38064 ft 431 kts 342°
2026-04-22 09:54 41.16929 23.83085 38064 ft 432 kts 343°
2026-04-22 09:54 41.22857 23.81651 38056 ft 433 kts 342°
2026-04-22 09:55 41.28782 23.80217 38068 ft 433 kts 343°
2026-04-22 09:55 41.34717 23.78806 38063 ft 433 kts 343°
2026-04-22 09:56 41.40641 23.77397 38065 ft 432 kts 343°
2026-04-22 09:56 41.46564 23.75975 38061 ft 433 kts 343°
2026-04-22 09:57 41.52494 23.74545 38059 ft 433 kts 343°
2026-04-22 09:57 41.58429 23.73112 38054 ft 433 kts 343°
2026-04-22 09:58 41.64370 23.71676 38059 ft 435 kts 343°
2026-04-22 09:58 41.70330 23.70232 38039 ft 435 kts 343°
2026-04-22 09:59 41.76252 23.68796 38055 ft 435 kts 343°
2026-04-22 09:59 41.82210 23.67347 38034 ft 435 kts 343°
2026-04-22 10:00 41.88154 23.65900 38057 ft 434 kts 343°
2026-04-22 10:00 41.94097 23.64449 38056 ft 433 kts 343°
2026-04-22 10:01 42.00072 23.62988 38065 ft 434 kts 343°
2026-04-22 10:01 42.06017 23.61531 38053 ft 435 kts 343°
2026-04-22 10:02 42.11978 23.60068 38047 ft 436 kts 343°
2026-04-22 10:02 42.17909 23.58610 38039 ft 436 kts 343°
2026-04-22 10:03 42.23892 23.57136 38060 ft 438 kts 343°
2026-04-22 10:03 42.29908 23.55649 38062 ft 441 kts 344°
2026-04-22 10:04 42.35962 23.54151 38049 ft 443 kts 344°
2026-04-22 10:04 42.42035 23.52647 38050 ft 444 kts 344°
2026-04-22 10:05 42.48123 23.51137 38069 ft 445 kts 344°
2026-04-22 10:05 42.54217 23.49620 38051 ft 445 kts 344°
2026-04-22 10:06 42.60310 23.48101 38053 ft 445 kts 344°
2026-04-22 10:06 42.66402 23.46580 38051 ft 444 kts 344°
2026-04-22 10:07 42.72476 23.45061 38050 ft 443 kts 344°
2026-04-22 10:07 42.78529 23.43543 38047 ft 442 kts 344°
2026-04-22 10:08 42.84568 23.42025 38051 ft 440 kts 344°
2026-04-22 10:08 42.90586 23.40509 38051 ft 440 kts 344°
2026-04-22 10:09 42.96563 23.39001 38063 ft 439 kts 344°
2026-04-22 10:09 43.02588 23.37477 38054 ft 440 kts 344°
2026-04-22 10:10 43.08608 23.35952 38049 ft 439 kts 344°
2026-04-22 10:10 43.14601 23.34431 38075 ft 438 kts 344°
2026-04-22 10:11 43.20599 23.32906 38076 ft 438 kts 344°
2026-04-22 10:11 43.26687 23.31956 38084 ft 442 kts 350°
2026-04-22 10:12 43.32820 23.31302 38072 ft 442 kts 349°
2026-04-22 10:12 43.38910 23.30544 38084 ft 442 kts 349°
2026-04-22 10:13 43.45050 23.29755 38086 ft 444 kts 349°
2026-04-22 10:13 43.51204 23.28975 38076 ft 445 kts 349°
2026-04-22 10:14 43.57374 23.28208 38082 ft 445 kts 349°
2026-04-22 10:14 43.63554 23.27448 38084 ft 446 kts 349°
2026-04-22 10:15 43.69745 23.26684 38078 ft 447 kts 349°
2026-04-22 10:15 43.75943 23.25915 38078 ft 447 kts 349°
2026-04-22 10:16 43.82139 23.25139 38084 ft 447 kts 348°
2026-04-22 10:16 43.88148 23.23312 38078 ft 440 kts 339°
2026-04-22 10:17 43.94040 23.20982 38065 ft 440 kts 339°
2026-04-22 10:17 43.99936 23.18650 38066 ft 441 kts 339°
2026-04-22 10:18 44.05803 23.16366 38060 ft 441 kts 340°
2026-04-22 10:18 44.11715 23.14082 38059 ft 441 kts 340°
2026-04-22 10:19 44.17627 23.11799 38059 ft 441 kts 340°
2026-04-22 10:19 44.23545 23.09508 38052 ft 441 kts 340°
2026-04-22 10:20 44.29462 23.07212 38048 ft 441 kts 340°
2026-04-22 10:20 44.35381 23.04909 38046 ft 442 kts 340°
2026-04-22 10:21 44.41303 23.02601 38044 ft 442 kts 340°
2026-04-22 10:21 44.47229 23.00287 38047 ft 442 kts 340°
2026-04-22 10:22 44.53167 22.97962 38031 ft 443 kts 340°
2026-04-22 10:22 44.59100 22.95635 38038 ft 443 kts 340°
2026-04-22 10:23 44.65032 22.93303 38035 ft 443 kts 340°
2026-04-22 10:23 44.70952 22.90972 38035 ft 443 kts 340°
2026-04-22 10:24 44.76892 22.88627 38029 ft 443 kts 340°
2026-04-22 10:24 44.82822 22.86281 38031 ft 443 kts 340°
2026-04-22 10:25 44.88751 22.83930 38035 ft 443 kts 340°
2026-04-22 10:25 44.94696 22.81568 38030 ft 443 kts 340°
2026-04-22 10:26 45.00584 22.79224 38036 ft 443 kts 340°
2026-04-22 10:26 45.06511 22.76859 38033 ft 443 kts 340°
2026-04-22 10:27 45.11480 22.74873 38042 ft 443 kts 340°
2026-04-22 10:27 45.17408 22.72497 38062 ft 443 kts 340°
2026-04-22 10:28 45.23346 22.70113 38069 ft 444 kts 340°
2026-04-22 10:28 45.29295 22.67719 38063 ft 444 kts 340°
2026-04-22 10:29 45.35239 22.65323 38087 ft 444 kts 340°
2026-04-22 10:29 45.41144 22.62937 38087 ft 444 kts 340°
2026-04-22 10:30 45.47089 22.60529 38090 ft 445 kts 340°
2026-04-22 10:30 45.53052 22.58109 38081 ft 445 kts 340°
2026-04-22 10:31 45.58999 22.55690 38090 ft 444 kts 340°
2026-04-22 10:31 45.64943 22.53267 38095 ft 444 kts 340°
2026-04-22 10:32 45.70876 22.50843 38097 ft 443 kts 340°
2026-04-22 10:32 45.76797 22.48418 38113 ft 442 kts 340°
2026-04-22 10:33 45.82718 22.45988 38106 ft 443 kts 340°
2026-04-22 10:33 45.88644 22.43550 38099 ft 443 kts 340°
2026-04-22 10:34 45.94573 22.41106 38102 ft 443 kts 340°
2026-04-22 10:34 46.00506 22.38655 38096 ft 444 kts 340°
2026-04-22 10:35 46.06444 22.36196 38099 ft 444 kts 340°
2026-04-22 10:35 46.12393 22.33724 38096 ft 445 kts 341°
2026-04-22 10:36 46.18340 22.31248 38092 ft 445 kts 341°
2026-04-22 10:36 46.24257 22.28778 38093 ft 446 kts 341°
2026-04-22 10:37 46.33190 22.25038 38089 ft 445 kts 341°
2026-04-22 10:38 46.39142 22.22540 38077 ft 445 kts 341°
2026-04-22 10:38 46.45091 22.20037 38087 ft 445 kts 341°
2026-04-22 10:39 46.51035 22.17530 38101 ft 445 kts 341°
2026-04-22 10:39 46.56989 22.15013 38091 ft 445 kts 341°
2026-04-22 10:40 46.62933 22.12495 38097 ft 445 kts 341°
2026-04-22 10:40 46.68875 22.09972 38100 ft 444 kts 341°
2026-04-22 10:41 46.74810 22.07446 38101 ft 444 kts 341°
2026-04-22 10:41 46.80737 22.04918 38107 ft 444 kts 341°
2026-04-22 10:42 46.86668 22.02382 38107 ft 444 kts 341°
2026-04-22 10:42 46.92596 21.99842 38108 ft 444 kts 341°
2026-04-22 10:43 46.98484 21.97312 38099 ft 444 kts 341°
2026-04-22 10:43 47.04416 21.94759 38104 ft 444 kts 341°
2026-04-22 10:44 47.10391 21.92180 38108 ft 445 kts 341°
2026-04-22 10:44 47.16298 21.89625 38106 ft 446 kts 341°
2026-04-22 10:45 47.22251 21.87044 38107 ft 446 kts 341°
2026-04-22 10:45 47.28204 21.84457 38110 ft 446 kts 341°
2026-04-22 10:46 47.34162 21.81862 38108 ft 447 kts 341°
2026-04-22 10:46 47.40124 21.79260 38105 ft 447 kts 341°
2026-04-22 10:47 47.46085 21.76651 38105 ft 447 kts 341°
2026-04-22 10:47 47.52047 21.74035 38104 ft 447 kts 341°
2026-04-22 10:48 47.58007 21.71415 38104 ft 447 kts 341°
2026-04-22 10:48 47.63964 21.68789 38105 ft 446 kts 341°
2026-04-22 10:49 47.69916 21.66160 38112 ft 446 kts 341°
2026-04-22 10:49 47.75866 21.63524 38121 ft 446 kts 341°
2026-04-22 10:50 47.81815 21.60883 38123 ft 446 kts 341°
2026-04-22 10:50 47.87758 21.58238 38127 ft 446 kts 341°
2026-04-22 10:51 47.93694 21.55591 38131 ft 446 kts 341°
2026-04-22 10:51 47.99598 21.52951 38132 ft 446 kts 341°
2026-04-22 10:52 48.05583 21.50269 38128 ft 446 kts 341°
2026-04-22 10:52 48.11522 21.47600 38125 ft 446 kts 341°
2026-04-22 10:53 48.17432 21.44938 38119 ft 447 kts 341°
2026-04-22 10:53 48.23387 21.42250 38120 ft 447 kts 341°
2026-04-22 10:54 48.29341 21.39555 38116 ft 447 kts 341°
2026-04-22 10:54 48.35298 21.36852 38115 ft 447 kts 341°
2026-04-22 10:55 48.41251 21.34144 38124 ft 447 kts 341°
2026-04-22 10:55 48.47207 21.31429 38126 ft 447 kts 341°
2026-04-22 10:56 48.53155 21.28710 38126 ft 447 kts 341°
2026-04-22 10:56 48.59109 21.25948 38132 ft 447 kts 341°
2026-04-22 10:57 48.65052 21.23172 38132 ft 447 kts 341°
2026-04-22 10:57 48.70993 21.20391 38134 ft 446 kts 341°
2026-04-22 10:58 48.76928 21.17609 38154 ft 447 kts 341°
2026-04-22 10:58 48.79904 21.16211 38383 ft 447 kts 341°
2026-04-22 10:58 48.82870 21.14817 38663 ft 446 kts 341°
2026-04-22 10:58 48.85832 21.13424 38874 ft 445 kts 341°
2026-04-22 10:59 48.88785 21.12033 39103 ft 443 kts 341°
2026-04-22 10:59 48.91732 21.10643 39284 ft 443 kts 341°
2026-04-22 10:59 48.94678 21.09251 39412 ft 444 kts 341°
2026-04-22 10:59 48.97633 21.07853 39563 ft 444 kts 341°
2026-04-22 11:00 49.00542 21.06475 39721 ft 444 kts 341°
2026-04-22 11:00 49.03492 21.05076 39891 ft 443 kts 341°
2026-04-22 11:00 49.06427 21.03683 40085 ft 440 kts 341°
2026-04-22 11:01 49.12285 21.00898 40125 ft 442 kts 341°
2026-04-22 11:01 49.18201 20.98076 40127 ft 447 kts 341°
2026-04-22 11:02 49.24173 20.95221 40129 ft 451 kts 341°
2026-04-22 11:02 49.30185 20.92340 40126 ft 454 kts 341°
2026-04-22 11:03 49.36200 20.89451 40117 ft 452 kts 341°
2026-04-22 11:03 49.42168 20.86579 40117 ft 446 kts 341°
2026-04-22 11:04 49.48061 20.83725 40119 ft 442 kts 341°
2026-04-22 11:04 49.53904 20.80893 40135 ft 440 kts 341°
2026-04-22 11:05 49.59779 20.78048 40142 ft 445 kts 341°
2026-04-22 11:05 49.65730 20.75155 40138 ft 451 kts 341°
2026-04-22 11:06 49.71727 20.72231 40140 ft 453 kts 341°
2026-04-22 11:06 49.77712 20.69304 40137 ft 454 kts 341°
2026-04-22 11:07 49.83744 20.66346 40126 ft 454 kts 341°
2026-04-22 11:07 49.89760 20.63389 40131 ft 453 kts 341°
2026-04-22 11:08 49.95762 20.60430 40134 ft 452 kts 342°
2026-04-22 11:08 50.01748 20.57472 40133 ft 451 kts 342°
2026-04-22 11:09 50.07711 20.54518 40134 ft 449 kts 342°
2026-04-22 11:09 50.13654 20.51565 40139 ft 448 kts 342°
2026-04-22 11:10 50.19587 20.48610 40136 ft 447 kts 342°
2026-04-22 11:10 50.25510 20.45651 40140 ft 447 kts 342°
2026-04-22 11:11 50.31426 20.42689 40142 ft 446 kts 342°
2026-04-22 11:11 50.37341 20.39719 40142 ft 446 kts 342°
2026-04-22 11:12 50.43255 20.36742 40141 ft 446 kts 342°
2026-04-22 11:12 50.49168 20.33758 40139 ft 447 kts 342°
2026-04-22 11:13 50.55091 20.30761 40150 ft 447 kts 342°
2026-04-22 11:13 50.60943 20.27430 40142 ft 447 kts 339°
2026-04-22 11:14 50.66763 20.23956 40146 ft 448 kts 342°
2026-04-22 11:14 50.72699 20.20989 40154 ft 448 kts 343°
2026-04-22 11:15 50.77648 20.18578 40147 ft 448 kts 343°
2026-04-22 11:15 50.84559 20.15118 40154 ft 448 kts 343°
2026-04-22 11:16 50.89542 20.12595 40154 ft 449 kts 343°
2026-04-22 11:16 50.95487 20.09569 40153 ft 449 kts 343°
2026-04-22 11:17 51.01429 20.06518 40160 ft 449 kts 343°
2026-04-22 11:17 51.07377 20.03459 40164 ft 449 kts 343°
2026-04-22 11:18 51.13328 20.00406 40166 ft 449 kts 343°
2026-04-22 11:18 51.19252 19.97404 40169 ft 450 kts 343°
2026-04-22 11:19 51.25212 19.94358 40169 ft 450 kts 343°
2026-04-22 11:19 51.31167 19.91263 40167 ft 450 kts 343°
2026-04-22 11:20 51.37118 19.88167 40168 ft 450 kts 343°
2026-04-22 11:20 51.43065 19.85051 40173 ft 450 kts 343°
2026-04-22 11:21 51.49023 19.81947 40169 ft 450 kts 343°
2026-04-22 11:21 51.54973 19.78850 40170 ft 450 kts 343°
2026-04-22 11:22 51.60918 19.75709 40176 ft 450 kts 343°
2026-04-22 11:22 51.66859 19.72561 40182 ft 449 kts 343°
2026-04-22 11:23 51.72796 19.69416 40174 ft 449 kts 343°
2026-04-22 11:23 51.78730 19.66276 40176 ft 449 kts 343°
2026-04-22 11:24 51.84653 19.63284 40177 ft 448 kts 345°
2026-04-22 11:24 51.90625 19.60394 40180 ft 448 kts 345°
2026-04-22 11:25 51.96584 19.57471 40173 ft 448 kts 345°
2026-04-22 11:25 52.02543 19.54533 40177 ft 447 kts 345°
2026-04-22 11:26 52.08499 19.51592 40164 ft 447 kts 345°
2026-04-22 11:26 52.14451 19.48646 40111 ft 446 kts 346°
2026-04-22 11:27 52.20364 19.45712 40158 ft 444 kts 346°
2026-04-22 11:27 52.26262 19.42778 40165 ft 443 kts 346°
2026-04-22 11:28 52.32153 19.39838 40172 ft 442 kts 346°
2026-04-22 11:28 52.38031 19.36897 40173 ft 442 kts 346°
2026-04-22 11:29 52.43904 19.33950 40172 ft 441 kts 346°
2026-04-22 11:29 52.49777 19.30994 40174 ft 441 kts 346°
2026-04-22 11:30 52.55647 19.28032 40172 ft 441 kts 346°
2026-04-22 11:30 52.61521 19.25059 40170 ft 442 kts 346°
2026-04-22 11:31 52.67392 19.22078 40169 ft 442 kts 346°
2026-04-22 11:31 52.73277 19.19082 40174 ft 442 kts 346°
2026-04-22 11:32 52.79125 19.16095 40169 ft 443 kts 346°
2026-04-22 11:32 52.85010 19.13081 40172 ft 443 kts 346°
2026-04-22 11:33 52.90949 19.10031 40168 ft 444 kts 346°
2026-04-22 11:33 52.96846 19.06993 40174 ft 444 kts 346°
2026-04-22 11:34 53.02747 19.03945 40160 ft 444 kts 346°
2026-04-22 11:34 53.08649 19.00888 40169 ft 444 kts 346°
2026-04-22 11:35 53.14554 18.97843 40162 ft 444 kts 346°
2026-04-22 11:35 53.20457 18.94799 40160 ft 444 kts 346°
2026-04-22 11:36 53.26350 18.91712 40161 ft 444 kts 346°
2026-04-22 11:36 53.32199 18.88632 40162 ft 444 kts 346°
2026-04-22 11:37 53.38086 18.85526 40163 ft 443 kts 346°
2026-04-22 11:37 53.43966 18.82416 40156 ft 443 kts 346°
2026-04-22 11:38 53.49846 18.79299 40156 ft 443 kts 346°
2026-04-22 11:38 53.58499 18.73661 40156 ft 446 kts 340°
2026-04-22 11:39 53.64180 18.69435 40155 ft 446 kts 340°
2026-04-22 11:39 53.69878 18.65282 40152 ft 446 kts 341°
2026-04-22 11:40 53.75578 18.61155 40155 ft 446 kts 341°
2026-04-22 11:40 53.81278 18.56990 40156 ft 446 kts 340°
2026-04-22 11:41 53.86974 18.52804 40155 ft 446 kts 340°
2026-04-22 11:41 53.92672 18.48605 40146 ft 446 kts 340°
2026-04-22 11:42 53.98367 18.44398 40154 ft 446 kts 340°
2026-04-22 11:42 54.04056 18.40184 40160 ft 446 kts 340°
2026-04-22 11:43 54.09745 18.35957 40156 ft 446 kts 340°
2026-04-22 11:43 54.15427 18.31722 40156 ft 446 kts 340°
2026-04-22 11:44 54.21113 18.27471 40161 ft 446 kts 340°
2026-04-22 11:44 54.26793 18.23213 40166 ft 446 kts 340°
2026-04-22 11:45 54.32471 18.18935 40153 ft 446 kts 340°
2026-04-22 11:45 54.38139 18.14617 40145 ft 446 kts 340°
2026-04-22 11:46 54.43806 18.10282 40160 ft 446 kts 340°
2026-04-22 11:46 54.49421 18.05977 40165 ft 446 kts 340°
2026-04-22 11:47 54.55079 18.01627 40170 ft 445 kts 340°
2026-04-22 11:47 54.60744 17.97260 40174 ft 445 kts 340°
2026-04-22 11:48 54.66396 17.92888 40178 ft 445 kts 340°
2026-04-22 11:48 54.72045 17.88506 40184 ft 445 kts 340°
2026-04-22 11:49 54.77694 17.84111 40188 ft 445 kts 340°
2026-04-22 11:49 54.83353 17.79685 40186 ft 445 kts 340°
2026-04-22 11:50 54.88993 17.75244 40189 ft 445 kts 340°
2026-04-22 11:50 54.94632 17.70792 40188 ft 445 kts 340°
2026-04-22 11:51 55.00273 17.66370 40186 ft 444 kts 340°
2026-04-22 11:51 55.05940 17.62065 40183 ft 444 kts 341°
2026-04-22 11:52 55.11607 17.57748 40184 ft 444 kts 341°
2026-04-22 11:52 55.17219 17.53439 40184 ft 444 kts 341°
2026-04-22 11:53 55.22883 17.49058 40186 ft 445 kts 340°
2026-04-22 11:53 55.28520 17.44577 40184 ft 445 kts 340°
2026-04-22 11:54 55.34153 17.40065 40181 ft 445 kts 340°
2026-04-22 11:54 55.39790 17.35549 40185 ft 445 kts 340°
2026-04-22 11:55 55.45428 17.31025 40184 ft 446 kts 340°
2026-04-22 11:55 55.51077 17.26478 40183 ft 446 kts 340°
2026-04-22 11:56 55.56718 17.21924 40188 ft 446 kts 340°
2026-04-22 11:56 55.62440 17.17743 40173 ft 440 kts 349°
2026-04-22 11:57 55.68427 17.16353 40172 ft 431 kts
2026-04-22 11:57 55.74401 17.16926 40180 ft 430 kts
2026-04-22 11:58 55.80370 17.17595 40184 ft 430 kts
2026-04-22 11:58 55.86350 17.18218 40183 ft 431 kts
2026-04-22 11:59 55.92335 17.18805 40179 ft 431 kts
2026-04-22 11:59 55.98325 17.19381 40182 ft 431 kts
2026-04-22 12:00 56.04320 17.19957 40179 ft 431 kts
2026-04-22 12:00 56.10317 17.20536 40178 ft 431 kts
2026-04-22 12:01 56.16308 17.21118 40175 ft 431 kts
2026-04-22 12:01 56.21296 17.21603 40172 ft 431 kts
2026-04-22 12:02 56.27284 17.22188 40172 ft 431 kts
2026-04-22 12:02 56.33271 17.22774 40171 ft 430 kts
2026-04-22 12:03 56.39252 17.23361 40171 ft 430 kts
2026-04-22 12:03 56.45222 17.23949 40169 ft 429 kts
2026-04-22 12:04 56.51182 17.24538 40168 ft 428 kts
2026-04-22 12:04 56.57120 17.25127 40164 ft 427 kts
2026-04-22 12:05 56.63048 17.25717 40163 ft 426 kts
2026-04-22 12:05 56.68955 17.26306 40162 ft 425 kts
2026-04-22 12:06 56.74810 17.26893 40160 ft 424 kts
2026-04-22 12:06 56.80692 17.27484 40161 ft 423 kts
2026-04-22 12:07 56.86560 17.28075 40164 ft 422 kts
2026-04-22 12:07 56.92421 17.28667 40160 ft 422 kts
2026-04-22 12:08 56.98274 17.29261 40158 ft 421 kts
2026-04-22 12:08 57.04126 17.29857 40158 ft 421 kts
2026-04-22 12:09 57.09982 17.30454 40158 ft 421 kts
2026-04-22 12:09 57.15832 17.31053 40156 ft 421 kts
2026-04-22 12:10 57.21689 17.31655 40155 ft 421 kts
2026-04-22 12:10 57.27544 17.32258 40152 ft 422 kts
2026-04-22 12:11 57.33401 17.32863 40153 ft 422 kts
2026-04-22 12:11 57.39261 17.33471 40149 ft 422 kts
2026-04-22 12:12 57.45120 17.34080 40152 ft 422 kts
2026-04-22 12:12 57.50969 17.34864 40139 ft 419 kts 14°
2026-04-22 12:13 57.56649 17.37048 40142 ft 417 kts 16°
2026-04-22 12:13 57.62315 17.39377 40141 ft 417 kts 16°
2026-04-22 12:14 57.67985 17.41680 40139 ft 417 kts 16°
2026-04-22 12:14 57.73623 17.43944 40134 ft 417 kts 16°
2026-04-22 12:15 57.76483 17.45092 39649 ft 423 kts 16°
2026-04-22 12:15 57.79341 17.46237 39181 ft 418 kts 16°
2026-04-22 12:15 57.82227 17.47394 38391 ft 418 kts 17°
2026-04-22 12:15 57.85018 17.48514 37704 ft 414 kts 17°
2026-04-22 12:16 57.87834 17.49646 36960 ft 412 kts 17°
2026-04-22 12:16 57.90627 17.50772 36254 ft 410 kts 17°
2026-04-22 12:16 57.93405 17.51895 35500 ft 408 kts 17°
2026-04-22 12:16 57.96182 17.53019 34736 ft 408 kts 17°
2026-04-22 12:17 57.98958 17.54147 33897 ft 408 kts 17°
2026-04-22 12:17 58.01731 17.55275 33006 ft 408 kts 17°
2026-04-22 12:17 58.04506 17.56405 32132 ft 408 kts 17°
2026-04-22 12:17 58.07275 17.57534 31257 ft 408 kts 16°
2026-04-22 12:18 58.10038 17.58661 30655 ft 403 kts 16°
2026-04-22 12:18 58.12769 17.59774 29972 ft 399 kts 16°
2026-04-22 12:18 58.15463 17.60875 29310 ft 393 kts 15°
2026-04-22 12:18 58.18118 17.61962 28698 ft 387 kts 15°
2026-04-22 12:19 58.20738 17.63037 28105 ft 382 kts 15°
2026-04-22 12:19 58.23318 17.64098 27524 ft 377 kts 15°
2026-04-22 12:19 58.25872 17.65151 26945 ft 374 kts 14°
2026-04-22 12:19 58.28411 17.66199 26359 ft 372 kts 14°
2026-04-22 12:20 58.30942 17.67247 25790 ft 375 kts 14°
2026-04-22 12:20 58.33530 17.68321 25217 ft 385 kts 14°
2026-04-22 12:20 58.36115 17.69394 24625 ft 385 kts 13°
2026-04-22 12:20 58.38714 17.70471 24039 ft 380 kts 13°
2026-04-22 12:21 58.41285 17.71539 23424 ft 376 kts 13°
2026-04-22 12:21 58.43828 17.72596 22779 ft 372 kts 12°
2026-04-22 12:21 58.46337 17.73641 22208 ft 366 kts 12°
2026-04-22 12:21 58.48810 17.74673 21655 ft 362 kts 12°
2026-04-22 12:22 58.51256 17.75696 21081 ft 358 kts 12°
2026-04-22 12:22 58.53674 17.76708 20547 ft 354 kts 12°
2026-04-22 12:22 58.56073 17.77714 20000 ft 351 kts 11°
2026-04-22 12:22 58.58451 17.78712 19465 ft 349 kts 11°
2026-04-22 12:23 58.60810 17.79704 18944 ft 346 kts 11°
2026-04-22 12:23 58.63156 17.80691 18420 ft 344 kts 10°
2026-04-22 12:23 58.65491 17.81675 17830 ft 342 kts 10°
2026-04-22 12:23 58.67809 17.82653 17279 ft 339 kts 10°
2026-04-22 12:24 58.70105 17.83623 16761 ft 336 kts 10°
2026-04-22 12:24 58.72376 17.84584 16242 ft 333 kts 10°
2026-04-22 12:24 58.74631 17.85539 15731 ft 330 kts 10°
2026-04-22 12:24 58.76869 17.86488 15240 ft 328 kts 10°
2026-04-22 12:25 58.79093 17.87433 14717 ft 327 kts 10°
2026-04-22 12:25 58.81297 17.88455 14211 ft 326 kts 14°
2026-04-22 12:25 58.83398 17.90074 13721 ft 325 kts 22°
2026-04-22 12:25 58.85425 17.91982 13203 ft 323 kts 23°
2026-04-22 12:26 58.87431 17.93910 12719 ft 320 kts 23°
2026-04-22 12:26 58.89414 17.95813 12227 ft 317 kts 23°
2026-04-22 12:26 58.91386 17.97698 11735 ft 315 kts 23°
2026-04-22 12:26 58.93345 17.99565 11241 ft 312 kts 23°
2026-04-22 12:27 58.95290 18.01415 10779 ft 310 kts 23°
2026-04-22 12:27 58.97183 18.03222 10677 ft 297 kts 22°
2026-04-22 12:27 58.99002 18.04947 10522 ft 285 kts 22°
2026-04-22 12:27 59.00750 18.06582 10397 ft 273 kts 18°
2026-04-22 12:28 59.02572 18.07079 10205 ft 260 kts 355°
2026-04-22 12:28 59.04338 18.06559 9939 ft 256 kts 347°
2026-04-22 12:28 59.06042 18.05669 9649 ft 253 kts 344°
2026-04-22 12:28 59.07722 18.04711 9343 ft 250 kts 343°
2026-04-22 12:29 59.09351 18.03776 9063 ft 246 kts 344°
2026-04-22 12:29 59.10988 18.02846 8790 ft 244 kts 344°
2026-04-22 12:29 59.12621 18.01931 8403 ft 245 kts 344°
2026-04-22 12:29 59.14252 18.01024 8139 ft 242 kts 343°
2026-04-22 12:30 59.17449 17.99249 7628 ft 236 kts 343°
2026-04-22 12:30 59.19017 17.98388 7344 ft 233 kts 343°
2026-04-22 12:30 59.20572 17.97534 7098 ft 231 kts 343°
2026-04-22 12:31 59.22101 17.96692 6870 ft 227 kts 343°
2026-04-22 12:31 59.23615 17.95857 6607 ft 226 kts 342°
2026-04-22 12:31 59.25123 17.95028 6376 ft 223 kts 342°
2026-04-22 12:31 59.26578 17.94229 6274 ft 214 kts 342°
2026-04-22 12:32 59.27985 17.93452 6186 ft 206 kts 342°
2026-04-22 12:32 59.30660 17.91974 6006 ft 194 kts 343°
2026-04-22 12:32 59.31940 17.91268 5919 ft 188 kts 343°
2026-04-22 12:33 59.33093 17.90640 5855 ft 179 kts 342°
2026-04-22 12:33 59.34268 17.89986 5648 ft 172 kts 342°
2026-04-22 12:33 59.35375 17.89375 5455 ft 160 kts 343°
2026-04-22 12:33 59.36426 17.88791 5200 ft 154 kts 343°
2026-04-22 12:34 59.37430 17.88235 5000 ft 146 kts 343°
2026-04-22 12:34 59.38403 17.87694 4828 ft 146 kts 344°
2026-04-22 12:34 59.39381 17.87270 4750 ft 140 kts 359°
2026-04-22 12:34 59.40384 17.87423 4620 ft 148 kts
2026-04-22 12:35 59.41396 17.87565 4435 ft 144 kts
2026-04-22 12:35 59.42366 17.87806 4262 ft 139 kts
2026-04-22 12:35 59.43318 17.88098 4088 ft 141 kts
2026-04-22 12:35 59.44264 17.88429 3886 ft 132 kts
2026-04-22 12:36 59.45150 17.88733 3627 ft 128 kts
2026-04-22 12:36 59.46001 17.89010 3564 ft 130 kts
2026-04-22 12:36 59.46914 17.89412 3327 ft 129 kts
2026-04-22 12:36 59.47792 17.89707 3187 ft 129 kts
2026-04-22 12:37 59.48684 17.90003 2997 ft 130 kts
2026-04-22 12:37 59.49563 17.90296 2809 ft 126 kts
2026-04-22 12:37 59.50426 17.90668 2649 ft 130 kts
2026-04-22 12:37 59.51320 17.90973 2440 ft 133 kts
2026-04-22 12:38 59.52217 17.91284 2298 ft 132 kts
2026-04-22 12:38 59.53117 17.91620 2117 ft 131 kts
2026-04-22 12:38 59.53981 17.91928 1964 ft 124 kts
2026-04-22 12:38 59.54849 17.92280 1758 ft 127 kts
2026-04-22 12:39 59.55726 17.92545 1588 ft 129 kts
2026-04-22 12:39 59.57479 17.93199 1233 ft 128 kts
2026-04-22 12:39 59.58357 17.93518 1053 ft 129 kts
2026-04-22 12:40 59.59215 17.93830 868 ft 122 kts
2026-04-22 12:40 59.60029 17.94126 702 ft 116 kts
2026-04-22 12:40 59.60837 17.94419 547 ft 120 kts
2026-04-22 12:40 59.61673 17.94724 392 ft 123 kts
2026-04-22 12:41 59.62524 17.95037 206 ft 126 kts
2026-04-22 12:41 59.63349 17.95328 122 ft 110 kts 11°
2026-04-22 12:41 59.63900 17.95531 113 ft 45 kts
2026-04-22 12:41 59.64161 17.95508 109 ft 30 kts 342°
2026-04-22 12:42 59.64304 17.95404 106 ft 21 kts 340°
2026-04-22 12:42 59.64444 17.95328 104 ft 21 kts
2026-04-22 12:42 59.64583 17.95374 104 ft 20 kts
2026-04-22 12:42 59.64718 17.95419 105 ft 19 kts 11°
2026-04-22 12:43 59.64848 17.95468 106 ft 19 kts 11°
2026-04-22 12:43 59.64974 17.95513 111 ft 18 kts
2026-04-22 12:43 59.65097 17.95487 115 ft 18 kts 345°
2026-04-22 12:43 59.65213 17.95426 120 ft 17 kts 345°
2026-04-22 12:44 59.65371 17.95343 126 ft 26 kts 345°
2026-04-22 12:44 59.65536 17.95254 126 ft 24 kts 345°
2026-04-22 12:44 59.65689 17.95174 127 ft 21 kts 343°
2026-04-22 12:44 59.65740 17.94949 124 ft 20 kts 256°
2026-04-22 12:45 59.65704 17.94658 123 ft 24 kts 257°
2026-04-22 12:45 59.65663 17.94343 125 ft 23 kts 256°
2026-04-22 12:45 59.65625 17.94037 118 ft 24 kts 256°
2026-04-22 12:45 59.65580 17.93675 112 ft 30 kts 256°
2026-04-22 12:46 59.65533 17.93293 111 ft 20 kts 256°
2026-04-22 12:46 59.65445 17.93207 111 ft 13 kts 176°
2026-04-22 12:46 59.65378 17.93130 110 ft 5 kts 220°